Location: Los Ranchitos
(37.9930°N, 122.5425°W)
Time: 14:48:14
(UTC+00:00)

Daily predictions for brighter satellites

Satellite Brightness Start Highest point End
(mag) Time Altitude Azimuth Time Altitude Azimuth Time Altitude Azimuth
ATLAS 5 CENTAUR R/B 4.4 12:20:11 10° SE 12:21:43 12° ESE 12:23:16 10° E
NOSS 3-3 (A) 4.4 12:21:34 83° WNW 12:21:56 86° WSW 12:30:35 10° SSE
NOSS 3-3 (C) 4.4 12:21:38 82° WNW 12:22:02 86° WSW 12:30:40 10° SSE
CENTAUR R/B 4.1 12:40:23 22° N 12:40:23 22° N 12:43:31 10° NNE
H-2A R/B 4.5 12:42:13 31° ESE 12:42:13 31° ESE 12:45:24 10° SSE
COSMO-SKYMED 1 4.5 12:42:17 10° SE 12:45:57 27° ENE 12:48:53 14° NNE
Envisat 4.0 12:42:46 10° NNE 12:47:39 45° E 12:52:29 10° S
MOS 1-B Rocket 4.4 12:44:40 10° SSE 12:50:53 60° ENE 12:55:50 14° N
Cosmos 2098 Rocket 4.3 12:54:27 35° NNE 12:54:27 35° NNE 12:57:29 10° N
Cosmos 2263 4.0 12:55:10 75° W 12:55:25 76° WNW 13:01:11 10° NNE
Cosmos 2369 Rocket 3.1 13:03:39 32° N 13:03:39 32° N 13:06:56 10° N
Cosmos 1656 Rocket 3.5 13:05:30 60° NW 13:05:30 60° NW 13:10:31 10° NNE
ATLAS 3B R/B 3.8 13:02:01 10° S 13:08:00 42° ESE 13:14:14 10° NE
Meteor 1-26 Rocket 4.3 13:10:26 53° W 13:10:39 53° W 13:16:09 10° S
DELTA 2 R/B (1) 3.5 13:10:34 59° W 13:11:39 80° N 13:17:12 10° E
SJ 16-02 3.0 13:10:26 10° SSE 13:14:25 35° E 13:18:24 10° NE
Cosmos 1354 Rocket 3.9 13:13:13 10° SSW 13:18:29 86° WNW 13:23:49 10° NNE
CZ-2C R/B 2.9 13:13:04 10° SSE 13:18:32 70° ENE 13:23:53 10° N
FALCON 9 R/B 4.4 13:04:37 28° W 13:20:49 74° SSW 13:28:39 10° ESE
Cosmos 2142 Rocket 4.5 13:17:40 10° N 13:24:04 85° W 13:30:27 10° S
SL-19 R/B 4.1 13:21:16 10° S 13:26:51 74° WSW 13:31:43 14° NNW
Cosmos 2279 Rocket 3.9 13:21:26 10° N 13:27:38 84° W 13:33:49 10° S
Cosmos 921 Rocket 4.0 13:33:05 31° WSW 13:33:05 31° WSW 13:36:20 10° SSW
Nadezhda 4 Rocket 4.4 13:26:54 10° S 13:32:57 63° E 13:39:06 10° NNE
Uosat 12 SS-18 rocket 4.5 13:28:29 10° SSW 13:33:25 83° WNW 13:39:34 10° NNE
SKYMED 2 3.4 13:29:30 10° SSE 13:33:51 85° WSW 13:37:30 15° NNW
SJ-12 4.0 13:30:12 10° N 13:34:14 53° WNW 13:38:15 10° SSW
USA 215 4.1 13:32:10 10° ESE 13:38:14 43° NNE 13:43:33 14° NNW
EP 2 4.4 13:38:44 51° WSW 13:39:21 73° WNW 13:42:20 10° NNE
ADEOS 3.8 13:34:27 10° NNE 13:39:41 72° ESE 13:44:52 10° S
CZ-4B R/B 4.2 13:39:51 10° NNE 13:43:11 36° E 13:46:34 10° SSE
SL-27 R/B 3.2 13:42:25 13° N 13:45:30 51° ENE 13:48:54 10° SSE
Cosmos 1812 3.9 13:47:08 24° WSW 13:47:08 24° WSW 13:49:28 10° SSW
Meteor 2-15 4.4 13:40:06 10° N 13:46:11 89° E 13:52:14 10° S
Cosmos 1634 Rocket 4.5 13:42:18 14° NNW 13:47:03 35° W 13:52:35 10° SSW
H-2A R/B 4.1 13:43:35 10° SE 13:47:11 27° ENE 13:50:52 10° N
Cosmos 1151 Rocket 3.6 13:47:00 29° NW 13:48:19 35° W 13:52:16 10° SSW
Cosmos 1340 Rocket 3.2 13:46:19 10° S 13:50:13 63° E 13:54:10 10° NNE
NOAA 11 4.2 13:50:46 10° NNE 13:56:16 89° WNW 14:01:46 10° SSW
Meteor 2-19 Rocket 4.3 13:50:46 10° SSW 13:56:48 74° W 14:02:52 10° N
SL-8 R/B 3.7 13:54:54 22° NW 13:57:58 78° NNE 14:02:44 10° ESE
Cosmos 783 Rocket 4.4 13:53:06 10° NNW 13:58:19 81° WSW 14:03:31 10° SSE
Okean 3 Rocket 4.5 13:55:59 10° SW 13:59:52 27° WNW 14:03:45 10° NNW
CZ-2C R/B 3.2 13:55:08 10° NNE 14:00:06 76° ESE 14:05:19 10° S
FAST Rocket 4.3 13:58:10 10° S 14:00:44 64° E 14:03:38 10° NNE
Cosmos 1777 Rocket 4.0 14:00:11 10° SSW 14:05:18 59° WNW 14:10:29 10° N
ATLAS 5 CENTAUR R/B 1.6 14:02:04 10° SW 14:05:40 43° NW 14:09:38 10° NNE
CZ-4B R/B 4.2 14:05:22 10° ESE 14:07:39 18° ENE 14:09:56 10° NNE
Cosmos 1328 Rocket 4.4 14:08:16 12° NW 14:11:33 28° W 14:15:13 10° SSW
Cosmos 773 Rocket 3.9 14:06:51 10° NNW 14:12:01 68° WSW 14:17:07 10° S
USA 32 4.4 14:08:43 10° N 14:13:57 67° E 14:19:09 10° SSE
Cosmos 1939 Rocket 3.1 14:12:07 10° NNE 14:16:00 71° E 14:19:50 10° S
Meteor 1-27 Rocket 3.7 14:10:28 10° NNW 14:16:09 74° W 14:21:55 10° S
BREEZE-M DEB (TANK) 3.7 14:05:01 10° WSW 14:18:18 53° NW 14:22:00 10° NE
Meteor 1-31 Rocket 4.0 14:15:22 10° NNW 14:18:21 21° WNW 14:21:20 10° WSW
SL-4 R/B 1.9 14:17:52 10° SW 14:21:19 71° SE 14:25:00 10° NE
COSMO-SKYMED 1 3.7 14:18:34 10° SSW 14:22:03 23° W 14:25:33 10° NW
BREEZE-M DEB (TANK) 4.5 14:09:01 11° NW 14:22:24 40° WSW 14:27:03 10° S
CZ-3 R/B 3.5 14:15:14 10° SW 14:24:56 27° S 14:29:14 10° ESE
DMSP B5D2-2 4.0 14:20:00 10° S 14:25:11 71° WSW 14:30:24 10° NNW
Envisat 4.2 14:22:41 10° NNW 14:26:17 20° WNW 14:29:53 10° WSW
NOAA 6 4.4 14:23:49 10° NNE 14:28:57 72° ESE 14:34:02 10° S
Okean 1 4.4 14:25:57 10° N 14:29:46 46° E 14:33:33 10° SSE
Cosmos 158 Rocket 4.2 14:26:33 10° NNW 14:31:45 78° ENE 14:37:02 10° SSE
CZ-2D R/B 4.4 14:28:44 10° NNE 14:32:24 46° E 14:36:03 10° S
Alouette 2 Rocket 3.2 14:35:04 10° NNW 14:38:37 64° W 14:42:23 10° S
Cosmos 2026 Rocket 4.0 14:32:20 10° S 14:38:42 82° W 14:45:01 10° N
Meteor 1-25 Rocket 4.2 14:33:19 10° SSW 14:38:55 68° W 14:44:28 10° N
Cosmos 2195 Rocket 4.5 14:36:48 10° SSW 14:42:51 63° W 14:48:55 10° N
Cosmos 1743 Rocket 4.3 14:39:48 10° SW 14:43:44 32° WNW 14:47:38 10° NNW
Cosmos 2297 Rocket 3.5 14:40:46 10° N 14:46:04 39° ENE 14:51:20 10° SE
